Location: Gibsondale
(40.9931°N, 80.2478°W)
Time: 18:25:09
(UTC+00:00)

Cosmos 2263 Rocket - Pass Details

Date: 29 October 2020
Orbit: 822 x 850 km, 71.0° (Epoch: 23 November)

Event Time Altitude Azimuth Distance (km) Brightness Sun altitude
Rises 23:43:17 0° 347° (NNW) 3,420 5.5 -16.3°
Reaches altitude 10° 23:46:26 10° 4° (N) 2,483 4.6 -16.9°
Enters shadow 23:50:13 20° 46° (NE) 1,873 3.6 -17.6°
